Find OneWeb SL0691

NORAD ID: 61599 Int'l Des: 2024-188 Owner: ONEWEBE Country: UK Constellation: oneweb operational
別名: ONEWEB-0691 spacetrack, celestrak
LEOCIRCULARPOLARONEWEB_TYPE

現在のビュー

3D地球を読み込み中...

About OneWeb SL0691

OneWeb SL0691 (NORAD 61599) is a oneweb constellation satellite launched Oct 20, 2024 by ONEWEBE of UK. It operates in LEO, CIRCULAR, POLAR, ONEWEB_TYPE orbit with a mass of 148.00 kg.

次回通過

Passes for default location (London). Set your location on the main map for personalized predictions.

高度履歴

Loading altitude history...

軌道要素

1 61599U 24188F 26265.70315381 .00000020 00000-0 20231-4 0 9996
2 61599 87.8984 1.6032 0002097 109.1219 251.0136 13.11417993 97260
Epoch: Sep 22, 2026 • Age: 18 hours

現在のステータス

高度 1240.7 km
遠地点 / 近地点 N/A
速度 7.23 km/s
衛星直下点 -56.70°S, 23.98°E
打ち上げ日 Oct 20, 2024
運用期間 1.9 years
タイプ internet

技術仕様

分類 Payload
質量 148.00 kg
乾燥質量 140.00 kg
長さ 1.30 m
直径 1.00 m
スパン 5.00 m
形状 ? Trapezoid+2 pan
製造者 ONEWUS
バスタイプ ARROW
フェーズステータス In Orbit
所有者/国 ONEWEBE/UK

Most Searched